[[{"header":{"parameterUnit":"m.s-1","parameterCategory":1,"la1":30.2991,"la2":30.254,"lo1":-89.0895,"lo2":-89.0444,"dy":0.0017,"dx":0.0017,"nx":28,"ny":28,"refTime":"2023-09-17T03:00:00:Z","depth":0,"parameterNumber":2,"parameterNumberName":"U-component_of_WINDS"},"data":[0,0,0,0,0,0,0,0,0,0,0,0,0,0,0,0,0,0,0,0,0,0,0,0,0,0,0,0,0,0,0,0,0,0,0,0,0,0,0,0,0,0,0,0,0,0,0,0,0,0,0,0,0,0,0,0,0,0,-1.076,-1.076,0,-1.0801,-1.0802,-1.0802,-1.0808,-1.0808,-1.0807,-1.0807,-1.0851,-1.0852,-1.0854,0,0,0,0,0,0,0,0,0,0,0,0,0,-1.0687,-1.0688,-1.076,-1.076,-1.0761,-1.0801,-1.0802,-1.0802,-1.0808,-1.0808,-1.0807,-1.0807,-1.085,-1.0852,-1.0854,0,0,0,0,0,0,0,0,0,0,0,0,0,-1.0722,-1.0689,-1.076,-1.0769,-1.077,-1.0801,-1.0802,-1.0802,-1.0808,-1.0808,-1.0807,-1.0807,-1.085,-1.0852,-1.0854,-1.0879,0,0,-1.0861,-1.0862,0,0,0,0,0,0,0,0,-1.072,-1.0725,-1.0767,-1.0768,-1.0769,-1.0799,-1.0792,-1.0828,-1.0808,-1.0794,-1.0807,-1.0806,-1.0834,-1.0837,-1.0847,-1.0882,-1.0883,-1.0861,-1.0862,-1.0863,-1.0864,0,0,0,0,0,0,0,-1.0718,-1.0723,-1.0776,-1.0767,-1.0769,-1.0771,-1.0775,-1.0799,-1.0817,-1.0795,-1.0795,-1.08,-1.0835,-1.0844,-1.0848,-1.0884,-1.0861,-1.0863,-1.0864,-1.0865,-1.0942,-1.0943,0,0,0,0,0,0,-1.0714,-1.0721,-1.0775,-1.0777,-1.0743,-1.0773,-1.0778,-1.079,-1.0816,-1.082,-1.0801,-1.08,-1.0841,-1.0845,-1.0849,-1.0881,-1.0863,-1.0866,-1.0867,-1.0942,-1.0942,-1.0943,0,0,0,0,0,0,-1.0712,-1.0718,-1.0773,-1.0749,-1.0757,-1.0775,-1.0788,-1.0791,-1.0801,-1.0821,-1.0824,-1.0807,-1.084,-1.0846,-1.0872,-1.0882,-1.0867,-1.0869,-1.0941,-1.0942,-1.0943,-1.0944,0,0,0,0,0,0,-1.071,-1.0718,-1.0727,-1.075,-1.0758,-1.0795,-1.0789,-1.0792,-1.0805,-1.0805,-1.0828,-1.0831,-1.084,-1.0868,-1.0874,-1.0885,-1.087,-1.094,-1.0941,-1.0943,-1.0943,-1.0945,-1.0947,0,0,0,0,0,-1.0707,-1.0726,-1.0728,-1.0734,-1.077,-1.0795,-1.08,-1.081,-1.0805,-1.0815,-1.0828,-1.083,-1.088,-1.0871,-1.0878,-1.089,-1.0939,-1.0941,-1.0942,-1.0943,-1.0945,-1.0947,0,0,0,0,0,0,-1.0705,-1.0729,-1.0731,-1.0758,-1.0775,-1.0796,-1.0809,-1.0812,-1.0831,-1.083,-1.0842,-1.0847,-1.0873,-1.0884,-1.0873,-1.0916,-1.091,-1.0912,-1.0907,-1.091,-1.0912,-1.0908,-1.0872,0,0,0,0,0,-1.0708,-1.0726,-1.0746,-1.0768,-1.0776,-1.0791,-1.0803,-1.0809,-1.0827,-1.0834,-1.0848,-1.0866,-1.0886,-1.0898,-1.0918,-1.0945,-1.095,-1.0957,-1.0958,-1.096,-1.0962,-1.0978,-1.0981,-1.0948,-1.0948,-1.0948,0,0,-1.0713,-1.0729,-1.074,-1.0768,-1.0781,-1.08,-1.0797,-1.0817,-1.0831,-1.0837,-1.0862,-1.0874,-1.0894,-1.0921,-1.0933,-1.0931,-1.0972,-1.0962,-1.0962,-1.0964,-1.0979,-1.0982,-1.0985,-1.0949,-1.0949,-1.0949,0,0,-1.0733,-1.0746,-1.0766,-1.078,-1.08,-1.081,-1.0815,-1.0836,-1.0844,-1.0869,-1.0874,-1.0891,-1.0925,-1.0939,-1.0951,-1.0976,-1.0979,-1.0982,-1.0991,-1.1007,-1.1009,-1.1011,-1.1021,-1.1024,-1.0985,-1.0985,-1.0985,0,-1.0737,-1.0766,-1.0776,-1.0796,-1.0808,-1.0814,-1.0834,-1.0847,-1.0873,-1.0881,-1.0878,-1.092,-1.0934,-1.0965,-1.0971,-1.098,-1.0986,-1.098,-1.1008,-1.101,-1.1013,-1.1021,-1.1025,-1.0985,-1.0985,-1.0985,-1.0985,0,-1.077,-1.079,-1.0803,-1.0828,-1.0842,-1.0862,-1.0875,-1.0888,-1.0893,-1.0904,-1.093,-1.0947,-1.097,-1.0977,-1.0983,-1.1009,-1.1006,-1.1005,-1.0999,-1.1016,-1.1024,-1.1028,-1.0985,-1.0985,-1.0985,-1.0985,0,0,-1.079,-1.082,-1.0824,-1.0836,-1.0859,-1.0874,-1.0895,-1.0917,-1.0928,-1.0945,-1.0963,-1.0991,-1.099,-1.1004,-1.1011,-1.1024,-1.1043,-1.1021,-1.1022,-1.1025,-1.1073,-1.1073,-1.1077,-1.1045,-1.1046,-1.1046,-1.1071,0,-1.0812,-1.0848,-1.0858,-1.0889,-1.0907,-1.0913,-1.0931,-1.0947,-1.0957,-1.0975,-1.0986,-1.1006,-1.1004,-1.1012,-1.1025,-1.1038,-1.1053,-1.1036,-1.1062,-1.1062,-1.1056,-1.1082,-1.1082,-1.1105,-1.1075,-1.1075,-1.1076,0,-1.0843,-1.0861,-1.0894,-1.0915,-1.0923,-1.0939,-1.096,-1.0976,-1.0995,-1.1001,-1.1016,-1.1022,-1.1044,-1.1037,-1.1067,-1.1055,-1.1067,-1.1074,-1.1076,-1.1078,-1.107,-1.1085,-1.1112,-1.1116,-1.1081,-1.108,-1.108,0,-1.0854,-1.0887,-1.0911,-1.092,-1.0945,-1.0956,-1.0967,-1.0985,-1.0998,-1.1016,-1.1025,-1.1046,-1.1057,-1.1073,-1.1085,-1.1078,-1.1114,-1.1108,-1.112,-1.112,-1.1128,-1.1127,-1.1157,-1.1135,-1.1135,-1.1135,-1.1135,0,-1.0879,-1.0898,-1.0916,-1.093,-1.0953,-1.0964,-1.0986,-1.0997,-1.1013,-1.103,-1.1037,-1.1053,-1.1067,-1.1085,-1.1094,-1.1118,-1.1123,-1.1129,-1.1131,-1.1128,-1.1128,-1.1136,-1.1134,-1.1136,-1.1135,-1.1135,-1.1135,0,-1.0895,-1.0907,-1.0933,-1.0955,-1.0961,-1.0976,-1.0995,-1.1009,-1.102,-1.1041,-1.1047,-1.1064,-1.1085,-1.1098,-1.1126,-1.1132,-1.1158,-1.116,-1.1152,-1.1153,-1.1164,-1.1163,-1.1201,-1.1206,-1.118,-1.118,-1.1181,0,-1.0909,-1.0924,-1.0947,-1.0959,-1.097,-1.0989,-1.1002,-1.1014,-1.1027,-1.105,-1.1061,-1.1083,-1.1101,-1.1135,-1.115,-1.1171,-1.1173,-1.1185,-1.1177,-1.1173,-1.1174,-1.1172,-1.1174,-1.1187,-1.1187,-1.1187,-1.1187,0,-1.0934,-1.0939,-1.0957,-1.0978,-1.0993,-1.101,-1.1027,-1.1036,-1.1051,-1.1065,-1.1087,-1.1101,-1.1129,-1.115,-1.1173,-1.1184,-1.1188,-1.119,-1.1194,-1.1191,-1.1186,-1.1189,-1.1155,-1.1189,-1.1189,-1.1188,-1.1188,-1.1188,-1.095,-1.0964,-1.0982,-1.1002,-1.1016,-1.1031,-1.1046,-1.1058,-1.1077,-1.11,-1.1106,-1.1129,-1.1148,-1.1178,-1.119,-1.1208,-1.1206,-1.1212,-1.1214,-1.1215,-1.1215,-1.1183,-1.1212,-1.1212,-1.1212,-1.1212,-1.1212,0,-1.0975,-1.0987,-1.1005,-1.1028,-1.1044,-1.1046,-1.1065,-1.1078,-1.1098,-1.1115,-1.1133,-1.1158,-1.1179,-1.1195,-1.1217,-1.1229,-1.1231,-1.1234,-1.1233,-1.1236,-1.1216,-1.121,-1.1232,-1.1232,-1.1232,-1.1232,-1.1232,-1.1232,-1.0989,-1.1013,-1.1021,-1.1051,-1.1063,-1.1086,-1.1096,-1.1111,-1.1124,-1.1152,-1.1169,-1.118,-1.1197,-1.122,-1.1239,-1.1243,-1.1251,-1.1254,-1.1258,-1.1239,-1.1237,-1.1235,-1.123,-1.1255,-1.1255,-1.1277,-1.1277,-1.1277]},{"header":{"parameterUnit":"m.s-1","parameterCategory":1,"la1":30.2991,"la2":30.254,"lo1":-89.0895,"lo2":-89.0444,"dy":0.0017,"dx":0.0017,"nx":28,"ny":28,"refTime":"2023-09-17T03:00:00:Z","depth":0,"parameterNumber":3,"parameterNumberName":"V-component_of_WINDS"},"data":[0,0,0,0,0,0,0,0,0,0,0,0,0,0,0,0,0,0,0,0,0,0,0,0,0,0,0,0,0,0,0,0,0,0,0,0,0,0,0,0,0,0,0,0,0,0,0,0,0,0,0,0,0,0,0,0,0,0,1.6394,1.6392,0,1.6162,1.6159,1.6156,1.6015,1.6014,1.6013,1.6013,1.5761,1.5755,1.5749,0,0,0,0,0,0,0,0,0,0,0,0,0,1.6705,1.67,1.6395,1.6392,1.6389,1.6162,1.6159,1.6155,1.6015,1.6014,1.6013,1.6013,1.5763,1.5755,1.5748,0,0,0,0,0,0,0,0,0,0,0,0,0,1.6531,1.6698,1.6395,1.6292,1.628,1.6163,1.6159,1.6155,1.6015,1.6014,1.6013,1.6012,1.5765,1.5756,1.5747,1.571,0,0,1.5719,1.5715,0,0,0,0,0,0,0,0,1.6541,1.6519,1.631,1.6299,1.6285,1.6117,1.6175,1.6005,1.6015,1.6115,1.6013,1.6012,1.5879,1.586,1.5818,1.5698,1.5688,1.5718,1.5713,1.5709,1.5706,0,0,0,0,0,0,0,1.6553,1.6528,1.6302,1.6307,1.6292,1.6253,1.6227,1.6142,1.6005,1.6106,1.6096,1.6071,1.5872,1.5828,1.5811,1.5684,1.5719,1.571,1.5705,1.5701,1.5519,1.552,0,0,0,0,0,0,1.6583,1.654,1.6309,1.6295,1.6414,1.6248,1.6219,1.6171,1.6006,1.598,1.6072,1.6065,1.5844,1.5822,1.5802,1.5746,1.5709,1.57,1.5695,1.5519,1.5519,1.552,0,0,0,0,0,0,1.6591,1.6564,1.6319,1.6414,1.638,1.6244,1.6191,1.6167,1.6123,1.598,1.5953,1.6053,1.5842,1.5815,1.5735,1.5736,1.5696,1.5688,1.5518,1.5519,1.552,1.5637,0,0,0,0,0,0,1.66,1.6568,1.6555,1.6415,1.6376,1.626,1.6192,1.6164,1.6109,1.6098,1.5955,1.593,1.5839,1.5749,1.5726,1.5722,1.5681,1.5517,1.5518,1.552,1.5632,1.5642,1.565,0,0,0,0,0,1.6612,1.6595,1.6556,1.6528,1.6358,1.626,1.6237,1.6137,1.611,1.6094,1.6002,1.5934,1.574,1.5742,1.5714,1.5709,1.5516,1.5518,1.5519,1.5628,1.564,1.565,0,0,0,0,0,0,1.6734,1.6575,1.6529,1.6467,1.6379,1.6237,1.6214,1.6153,1.6066,1.6059,1.5935,1.5903,1.5835,1.5763,1.5768,1.5663,1.562,1.5616,1.5712,1.5722,1.5731,1.5748,1.5673,0,0,0,0,0,1.6755,1.6693,1.6555,1.6513,1.6472,1.6351,1.6305,1.6236,1.6137,1.6098,1.5999,1.5903,1.5819,1.5767,1.5682,1.5622,1.5586,1.5604,1.5613,1.5621,1.5618,1.5578,1.5584,1.5525,1.5525,1.5525,0,0,1.6794,1.67,1.6668,1.6536,1.6459,1.6394,1.632,1.6254,1.6203,1.6086,1.6005,1.593,1.5813,1.5743,1.5706,1.5681,1.5627,1.5622,1.563,1.5622,1.558,1.5586,1.5591,1.5526,1.5526,1.5526,0,0,1.6834,1.6758,1.6715,1.6641,1.6527,1.6447,1.6437,1.6304,1.6251,1.6169,1.608,1.6015,1.5875,1.5795,1.5736,1.5747,1.568,1.5723,1.5768,1.5731,1.5735,1.5739,1.5741,1.5743,1.5721,1.5721,1.5721,0,1.6897,1.68,1.6699,1.6639,1.6582,1.6478,1.6431,1.6362,1.6225,1.6186,1.6161,1.5984,1.5898,1.5806,1.5809,1.5766,1.5747,1.5738,1.5744,1.5746,1.5748,1.5748,1.5749,1.5727,1.5726,1.5726,1.5725,0,1.6882,1.6815,1.6793,1.6669,1.6609,1.6556,1.6443,1.6394,1.6331,1.6253,1.6169,1.6063,1.5955,1.5928,1.5863,1.5827,1.5814,1.5769,1.5722,1.5761,1.5759,1.5758,1.5735,1.5733,1.5731,1.573,0,0,1.699,1.6813,1.6806,1.6748,1.6616,1.656,1.65,1.6399,1.6359,1.6268,1.6212,1.6097,1.6054,1.5987,1.5913,1.5881,1.5894,1.5837,1.5833,1.585,1.5844,1.5879,1.5881,1.585,1.585,1.5849,1.5853,0,1.7009,1.6902,1.681,1.6735,1.667,1.6571,1.6518,1.6429,1.6355,1.6285,1.62,1.612,1.607,1.6029,1.5994,1.5901,1.5891,1.5899,1.5793,1.579,1.5824,1.588,1.5916,1.5925,1.5852,1.5852,1.5852,0,1.7016,1.6935,1.6855,1.6729,1.6698,1.6654,1.6553,1.649,1.6385,1.6332,1.626,1.6183,1.6111,1.6075,1.5972,1.598,1.5931,1.5878,1.5876,1.586,1.5822,1.5864,1.5925,1.5927,1.585,1.585,1.585,0,1.7102,1.6971,1.6906,1.6859,1.6711,1.6682,1.6618,1.6513,1.6458,1.6369,1.6331,1.6234,1.6179,1.6103,1.6,1.5984,1.5908,1.5863,1.5858,1.5861,1.5845,1.5847,1.5898,1.5818,1.5818,1.5818,1.5817,0,1.7132,1.7086,1.6943,1.6903,1.6847,1.674,1.6687,1.6614,1.6522,1.6462,1.6369,1.6314,1.6183,1.6111,1.603,1.5956,1.5932,1.5885,1.5863,1.5892,1.5898,1.5857,1.5853,1.5818,1.5818,1.5818,1.5818,0,1.7217,1.712,1.7042,1.691,1.6875,1.684,1.6724,1.6679,1.66,1.6526,1.6502,1.6376,1.6287,1.6178,1.6052,1.5997,1.5931,1.5899,1.5968,1.5955,1.5956,1.5957,1.5981,1.5977,1.5902,1.5903,1.5904,0,1.7242,1.7205,1.707,1.7026,1.6966,1.6896,1.684,1.6733,1.6678,1.6557,1.6526,1.6431,1.6349,1.621,1.6104,1.6007,1.5972,1.5987,1.5956,1.5986,1.5969,1.5972,1.5967,1.5994,1.5995,1.5997,1.5997,0,1.7295,1.7249,1.7176,1.7085,1.7023,1.6945,1.6862,1.683,1.6705,1.6647,1.6558,1.6495,1.6369,1.6274,1.6164,1.6092,1.6023,1.6009,1.6002,1.603,1.6071,1.6047,1.5987,1.6008,1.6007,1.6006,1.6005,1.6005,1.7349,1.7312,1.7211,1.7132,1.706,1.6985,1.6937,1.6853,1.6778,1.667,1.661,1.6522,1.6415,1.6261,1.6193,1.6119,1.6094,1.6085,1.6082,1.6081,1.609,1.6085,1.6099,1.6098,1.6098,1.6097,1.6097,0,1.7396,1.7328,1.7256,1.7146,1.7083,1.7028,1.6934,1.6883,1.6808,1.6718,1.6641,1.6536,1.6444,1.6333,1.6232,1.6195,1.616,1.6172,1.6172,1.6156,1.6118,1.6134,1.6201,1.6201,1.6201,1.6201,1.6201,1.6201,1.7414,1.7347,1.729,1.7185,1.7114,1.7031,1.6982,1.6911,1.6839,1.6729,1.6654,1.6583,1.6483,1.6374,1.6286,1.6255,1.6221,1.6243,1.6202,1.6168,1.6159,1.615,1.6164,1.6237,1.6237,1.6245,1.6245,1.6246]}]]